Miscellaneous Local Product
Issued by NWS North Platte, NE

Home | Current Version | Previous Version | Text Only | Print | Product List | Glossary On
Versions: 1 2 3 4 5 6 7 8 9 10 11 12 13 14 15 16 17 18 19 20 21 22 23 24 25 26 27 28 29 30 31 32 33 34 35 36 37 38 39 40 41 42 43 44 45 46 47 48 49 50
000
AXUS43 KLBF 252210
MISLBF


WESTERN AND NORTH CENTRAL NEBRASKA HOURLY WEATHER ROUNDUP
NATIONAL WEATHER SERVICE NORTH PLATTE NE
500 PM CDT TUE APR 25 2017

NOTE: "FAIR" INDICATES FEW OR NO CLOUDS BELOW 12,000 FEET WITH NO
SIGNIFICANT WEATHER AND/OR OBSTRUCTIONS TO VISIBILITY.

NOTE: STATIONS NOT REPORTING VARIABLES SUCH AS SKY/WEATHER OR
PRESSURE ARE PROVIDED BY RAWS AND APRS NETWORKS AND ARE NOT UNDER
NATIONAL WEATHER SERVICE QUALITY CONTROL.

...OBSERVATIONS IN AND NEAR THE EASTERN PANHANDLE OF NEBRASKA...

CITY           SKY/WX    TMP DP  RH WIND       PRES   REMARKS
PINE RIDGE     LGT SNOW  35  30  82 N17G25    29.75R WCI  25
CHADRON        CLOUDY    34  30  85 N16       29.76R WCI  24
ALLIANCE       CLOUDY    38  32  79 N17       29.68R WCI  28
SIDNEY         CLOUDY    47  41  80 NE22      29.62R
CRESCENT LAKE    N/A     40  34  80 NE14        N/A  WCI  32
$$

...OBSERVATIONS IN NORTHERN NEBRASKA AND FAR SOUTHERN SOUTH DAKOTA...

CITY           SKY/WX    TMP DP  RH WIND       PRES   REMARKS
WINNER         CLOUDY    37  31  78 N20       29.73S WCI  27
VALENTINE      CLOUDY    38  29  70 N21G26    29.72S WCI  28
THEDFORD       CLOUDY    39  33  80 N13       29.69R WCI  31
AINSWORTH      CLOUDY    35  33  94 N22G29    29.70R WCI  23
O`NEILL        CLOUDY    39  34  83 N16G25    29.67R WCI  30
ORD            CLOUDY    39  34  82 N17       29.65R WCI  30
BROKEN BOW     CLOUDY    40  35  83 N20       29.65R WCI  30
VALENTINE NWR    N/A     35  31  87 N15G24      N/A  WCI  25
HALSEY           N/A     38  34  85 N9G18       N/A  WCI  31
BUTTE            N/A     36  30  80 N20         N/A  WCI  25
CHAMBERS         N/A     39  35  87 N7          N/A  WCI  34
EWING            N/A     38  36  91 N12G21      N/A  WCI  30
$$

...OBSERVATIONS IN SOUTHWEST NEBRASKA AND FAR NORTHEAST COLORADO...

CITY           SKY/WX    TMP DP  RH WIND       PRES   REMARKS
HOLYOKE        FAIR      59  43  55 NE20      29.58S
IMPERIAL       CLOUDY    52  43  71 NE15      29.58S
OGALLALA       CLOUDY    50  40  67 NE16      29.62R
NORTH PLATTE   CLOUDY    46  38  73 N18G29    29.63S
MCCOOK         CLOUDY    52  42  69 NE14      29.59S
LEXINGTON      CLOUDY    44  38  81 N17       29.63R
STAPLETON        N/A     39  35  87 CALM        N/A
GOTHENBURG       N/A     45  38  76 N12         N/A
CALLAWAY         N/A     40  37  89 N12         N/A  WCI  33
$$

...OBSERVATIONS IN CENTRAL LINCOLN COUNTY AREA...

CITY           SKY/WX    TMP DP  RH WIND       PRES   REMARKS
N.P. AIRPORT   CLOUDY    46  38  73 N18G29    29.63S
N.P. DOWNTOWN    N/A     43  37  80 N14G22      N/A
N.P. HILLCREST   N/A     43  38  82 NE22        N/A
$$

...SOME OBSERVATIONS FROM AROUND THE REGION...

CITY           SKY/WX    TMP DP  RH WIND       PRES   REMARKS
DENVER         LGT RAIN  42  35  76 E14       29.59F
LIMON          LGT RAIN  42  38  85 CALM      29.62R
ASPEN          FLURRIES  35  30  82 CALM      29.71R
LARAMIE        CLOUDY    35  27  72 NW22G30   29.70R WCI  23
CASPER         CLOUDY    32  26  78 N13       29.81R WCI  22
CHEYENNE       CLOUDY    46  27  47 NW22G35   29.65R
SCOTTSBLUFF    CLOUDY    42  34  73 NE15G21   29.68R
GRAND ISLAND   CLOUDY    40  38  93 N18       29.62R WCI  31
OMAHA          LGT RAIN  48  43  82 N16       29.51S
SIOUX FALLS    LGT RAIN  41  40  96 N17       29.61S
PIERRE         FLURRIES  36  28  73 N22G30    29.77S WCI  25
RAPID CITY     LGT SNOW  29  25  85 N20       29.82  VSB 1   WCI  16
BISMARCK       CLOUDY    35  26  69 N15G21    29.92R WCI  25
KANSAS CITY    CLOUDY    71  57  61 SW9       29.42R
HILL CITY      CLOUDY    54  44  69 N18       29.57R
WICHITA        LGT RAIN  65  55  70 N18       29.42F
DODGE CITY     LGT RAIN  54  48  80 N14       29.52S
OKLAHOMA CITY  CLOUDY    83  60  45 S16G24    29.36F
DALLAS         PTSUNNY   85  67  54 S23G33    29.42F
AMARILLO       CLOUDY    72  41  32 W14G21    29.48F
$$




USA.gov is the U.S. government's official web portal to all federal, state and local government web resources and services.